[[{"header":{"parameterUnit":"m.s-1","parameterCategory":1,"la1":30.2991,"la2":30.254,"lo1":-89.0895,"lo2":-89.0444,"dy":0.0017,"dx":0.0017,"nx":28,"ny":28,"refTime":"2024-03-17T09:00:00:Z","depth":0,"parameterNumber":2,"parameterNumberName":"U-component_of_WINDS"},"data":[0,0,0,0,0,0,0,0,0,0,0,0,0,0,0,0,0,0,0,0,0,0,0,0,0,0,0,0,0,0,0,0,0,0,0,0,0,0,0,0,0,0,0,0,0,0,0,0,0,0,0,0,0,0,0,0,0,0,-0.2664,-0.2663,0,-0.2634,-0.2634,-0.2634,-0.2634,-0.2635,-0.2635,-0.2636,-0.2605,-0.2604,-0.2603,0,0,0,0,0,0,0,0,0,0,0,0,0,-0.272,-0.2719,-0.2664,-0.2663,-0.2663,-0.2634,-0.2634,-0.2634,-0.2634,-0.2635,-0.2635,-0.2636,-0.2606,-0.2604,-0.2603,0,0,0,0,0,0,0,0,0,0,0,0,0,-0.2693,-0.2718,-0.2664,-0.266,-0.2659,-0.2634,-0.2634,-0.2633,-0.2634,-0.2635,-0.2635,-0.2636,-0.2606,-0.2604,-0.2603,-0.258,0,0,-0.2597,-0.2596,0,0,0,0,0,0,0,0,-0.2695,-0.2691,-0.2661,-0.266,-0.2659,-0.2639,-0.2643,-0.2615,-0.2634,-0.2644,-0.2636,-0.2636,-0.2616,-0.2613,-0.2607,-0.2578,-0.2577,-0.2597,-0.2596,-0.2595,-0.2595,0,0,0,0,0,0,0,-0.2697,-0.2693,-0.2652,-0.266,-0.2659,-0.2659,-0.2656,-0.2638,-0.2627,-0.2643,-0.2643,-0.2639,-0.2616,-0.2608,-0.2606,-0.2577,-0.2597,-0.2596,-0.2594,-0.2594,-0.2527,-0.2527,0,0,0,0,0,0,-0.2699,-0.2694,-0.2653,-0.2651,-0.2679,-0.2658,-0.2654,-0.2645,-0.2627,-0.2625,-0.2639,-0.264,-0.2611,-0.2608,-0.2605,-0.2576,-0.2595,-0.2594,-0.2593,-0.2528,-0.2527,-0.2526,0,0,0,0,0,0,-0.2701,-0.2696,-0.2654,-0.2673,-0.2667,-0.2656,-0.2645,-0.2644,-0.2636,-0.2624,-0.2622,-0.2633,-0.2611,-0.2607,-0.2586,-0.2575,-0.2593,-0.2591,-0.2529,-0.2528,-0.2527,-0.2519,0,0,0,0,0,0,-0.2702,-0.2696,-0.2687,-0.2672,-0.2666,-0.2636,-0.2645,-0.2643,-0.2633,-0.2634,-0.2618,-0.2616,-0.2611,-0.2588,-0.2584,-0.2573,-0.259,-0.253,-0.2528,-0.2527,-0.252,-0.2518,-0.2516,0,0,0,0,0,-0.2704,-0.2686,-0.2687,-0.2682,-0.2655,-0.2635,-0.2632,-0.2627,-0.2633,-0.2623,-0.2615,-0.2617,-0.2577,-0.2586,-0.2581,-0.2569,-0.253,-0.2529,-0.2527,-0.2521,-0.2518,-0.2516,0,0,0,0,0,0,-0.27,-0.2684,-0.2685,-0.2662,-0.265,-0.2635,-0.2624,-0.2624,-0.261,-0.2611,-0.2605,-0.2602,-0.258,-0.2573,-0.2583,-0.2546,-0.2555,-0.2552,-0.2551,-0.2549,-0.2546,-0.2548,-0.2588,0,0,0,0,0,-0.2697,-0.2682,-0.2669,-0.265,-0.2644,-0.2635,-0.2626,-0.2623,-0.261,-0.2605,-0.2596,-0.2583,-0.2568,-0.2558,-0.2543,-0.2519,-0.2515,-0.2509,-0.2507,-0.2505,-0.2502,-0.2488,-0.2485,-0.2521,-0.2521,-0.2521,0,0,-0.269,-0.2679,-0.267,-0.2649,-0.2639,-0.2624,-0.2631,-0.2614,-0.2602,-0.2603,-0.2582,-0.2574,-0.256,-0.2537,-0.2526,-0.253,-0.2492,-0.2503,-0.2502,-0.25,-0.2486,-0.2483,-0.248,-0.252,-0.252,-0.2521,0,0,-0.2668,-0.2659,-0.2641,-0.2632,-0.2617,-0.2611,-0.2607,-0.2592,-0.2587,-0.2566,-0.2566,-0.2552,-0.2526,-0.2516,-0.2507,-0.2481,-0.2482,-0.2477,-0.2465,-0.2451,-0.2449,-0.2446,-0.2436,-0.2432,-0.2475,-0.2475,-0.2475,0,-0.266,-0.2637,-0.2632,-0.2615,-0.2606,-0.2606,-0.2588,-0.2579,-0.256,-0.2553,-0.2558,-0.2525,-0.2516,-0.249,-0.2483,-0.2477,-0.2471,-0.2478,-0.2449,-0.2447,-0.2444,-0.2435,-0.2431,-0.2474,-0.2474,-0.2474,-0.2474,0,-0.2628,-0.2612,-0.26,-0.2581,-0.2571,-0.2553,-0.2546,-0.2536,-0.2534,-0.2527,-0.2505,-0.2494,-0.2477,-0.2471,-0.2469,-0.2444,-0.2447,-0.2451,-0.2459,-0.244,-0.2431,-0.2427,-0.2473,-0.2473,-0.2474,-0.2474,0,0,-0.2602,-0.2582,-0.2577,-0.2569,-0.2553,-0.254,-0.2523,-0.2506,-0.2497,-0.2484,-0.2469,-0.2447,-0.245,-0.244,-0.2437,-0.2425,-0.2405,-0.243,-0.243,-0.2425,-0.2376,-0.2373,-0.2368,-0.2405,-0.2404,-0.2404,-0.2377,0,-0.2578,-0.2547,-0.2543,-0.2515,-0.25,-0.25,-0.2485,-0.2473,-0.2467,-0.2453,-0.2446,-0.243,-0.2435,-0.2429,-0.2418,-0.241,-0.2394,-0.2412,-0.239,-0.239,-0.2393,-0.2364,-0.236,-0.2335,-0.2373,-0.2373,-0.2372,0,-0.2546,-0.2532,-0.2503,-0.2489,-0.2482,-0.2468,-0.2452,-0.2439,-0.2426,-0.2422,-0.2411,-0.2409,-0.2391,-0.24,-0.2375,-0.2386,-0.2378,-0.2372,-0.2371,-0.2368,-0.2379,-0.2359,-0.2327,-0.2323,-0.2367,-0.2367,-0.2368,0,-0.2529,-0.2503,-0.2482,-0.2475,-0.2458,-0.2448,-0.2441,-0.2428,-0.2418,-0.2404,-0.2397,-0.2382,-0.2373,-0.236,-0.2354,-0.2362,-0.2328,-0.2338,-0.2324,-0.2324,-0.2316,-0.2317,-0.2282,-0.2312,-0.2312,-0.2312,-0.2312,0,-0.2502,-0.2484,-0.2474,-0.2461,-0.2441,-0.2436,-0.2416,-0.2409,-0.2398,-0.2383,-0.2382,-0.2369,-0.2362,-0.2347,-0.2343,-0.2321,-0.2318,-0.2314,-0.2312,-0.2313,-0.2313,-0.2306,-0.2308,-0.2311,-0.2312,-0.2312,-0.2312,0,-0.2479,-0.2472,-0.2449,-0.2435,-0.2431,-0.2417,-0.2404,-0.2392,-0.2385,-0.2367,-0.2362,-0.2352,-0.2335,-0.2328,-0.2307,-0.2303,-0.2279,-0.228,-0.2283,-0.2283,-0.2269,-0.227,-0.2227,-0.2221,-0.2257,-0.2257,-0.2256,0,-0.2462,-0.2448,-0.2432,-0.2422,-0.2414,-0.2399,-0.2388,-0.2383,-0.2372,-0.2356,-0.2345,-0.2328,-0.2313,-0.2285,-0.2276,-0.226,-0.2259,-0.2245,-0.2257,-0.2258,-0.2258,-0.2258,-0.2257,-0.2243,-0.2243,-0.2242,-0.2242,0,-0.2432,-0.2429,-0.2414,-0.2398,-0.2386,-0.2373,-0.236,-0.2352,-0.2345,-0.2333,-0.2315,-0.2304,-0.2282,-0.2264,-0.2247,-0.2239,-0.2239,-0.2239,-0.2235,-0.2235,-0.2237,-0.2235,-0.2277,-0.224,-0.224,-0.224,-0.224,-0.224,-0.241,-0.2398,-0.2384,-0.2368,-0.2358,-0.2346,-0.2333,-0.2325,-0.231,-0.2292,-0.229,-0.2271,-0.2257,-0.2234,-0.2226,-0.221,-0.2214,-0.2208,-0.2206,-0.2205,-0.2203,-0.224,-0.2207,-0.2207,-0.2207,-0.2207,-0.2207,0,-0.2379,-0.2371,-0.2356,-0.2338,-0.2325,-0.2326,-0.2312,-0.2301,-0.2284,-0.2272,-0.2258,-0.2237,-0.222,-0.2209,-0.2192,-0.2182,-0.2181,-0.2177,-0.2177,-0.2175,-0.2201,-0.2206,-0.2178,-0.2178,-0.2178,-0.2178,-0.2178,-0.2178,-0.2361,-0.234,-0.2335,-0.2309,-0.2301,-0.2282,-0.2273,-0.2262,-0.2252,-0.2229,-0.2215,-0.2208,-0.2196,-0.2178,-0.2163,-0.216,-0.2153,-0.2149,-0.2146,-0.2171,-0.2174,-0.2176,-0.2181,-0.2148,-0.2147,-0.2121,-0.2121,-0.2121]},{"header":{"parameterUnit":"m.s-1","parameterCategory":1,"la1":30.2991,"la2":30.254,"lo1":-89.0895,"lo2":-89.0444,"dy":0.0017,"dx":0.0017,"nx":28,"ny":28,"refTime":"2024-03-17T09:00:00:Z","depth":0,"parameterNumber":3,"parameterNumberName":"V-component_of_WINDS"},"data":[0,0,0,0,0,0,0,0,0,0,0,0,0,0,0,0,0,0,0,0,0,0,0,0,0,0,0,0,0,0,0,0,0,0,0,0,0,0,0,0,0,0,0,0,0,0,0,0,0,0,0,0,0,0,0,0,0,0,-0.6615,-0.6615,0,-0.663,-0.6631,-0.6631,-0.6659,-0.6659,-0.666,-0.666,-0.6675,-0.6674,-0.6674,0,0,0,0,0,0,0,0,0,0,0,0,0,-0.6609,-0.6609,-0.6615,-0.6615,-0.6615,-0.663,-0.6631,-0.6631,-0.6659,-0.6659,-0.666,-0.6661,-0.6675,-0.6674,-0.6674,0,0,0,0,0,0,0,0,0,0,0,0,0,-0.6616,-0.6609,-0.6615,-0.6631,-0.6633,-0.663,-0.6631,-0.6631,-0.6658,-0.6659,-0.666,-0.6661,-0.6675,-0.6675,-0.6674,-0.6657,0,0,-0.6674,-0.6674,0,0,0,0,0,0,0,0,-0.6616,-0.6617,-0.6629,-0.663,-0.6632,-0.6644,-0.6634,-0.664,-0.6658,-0.6649,-0.666,-0.6661,-0.6664,-0.6664,-0.6665,-0.6658,-0.6658,-0.6674,-0.6674,-0.6674,-0.6674,0,0,0,0,0,0,0,-0.6615,-0.6616,-0.6621,-0.6629,-0.6631,-0.6637,-0.6639,-0.6635,-0.6651,-0.665,-0.6652,-0.6653,-0.6665,-0.6665,-0.6666,-0.6659,-0.6674,-0.6674,-0.6673,-0.6673,-0.6637,-0.6636,0,0,0,0,0,0,-0.6613,-0.6615,-0.6621,-0.6622,-0.6626,-0.6637,-0.6639,-0.6639,-0.6651,-0.6654,-0.6652,-0.6654,-0.6665,-0.6666,-0.6666,-0.6647,-0.6674,-0.6673,-0.6673,-0.6638,-0.6637,-0.6636,0,0,0,0,0,0,-0.6612,-0.6613,-0.662,-0.6619,-0.6621,-0.6636,-0.6636,-0.6639,-0.664,-0.6654,-0.6657,-0.665,-0.6666,-0.6667,-0.6659,-0.6648,-0.6673,-0.6673,-0.6639,-0.6638,-0.6636,-0.6607,0,0,0,0,0,0,-0.6612,-0.6613,-0.6606,-0.6619,-0.662,-0.6613,-0.6635,-0.6638,-0.664,-0.6642,-0.6653,-0.6655,-0.6667,-0.6659,-0.6659,-0.6648,-0.6673,-0.664,-0.6638,-0.6637,-0.6609,-0.6605,-0.6601,0,0,0,0,0,-0.6612,-0.6597,-0.6606,-0.6606,-0.6613,-0.6612,-0.6613,-0.6627,-0.6638,-0.6632,-0.6641,-0.6655,-0.6649,-0.6658,-0.6658,-0.6647,-0.6641,-0.6639,-0.6637,-0.6611,-0.6606,-0.6601,0,0,0,0,0,0,-0.6583,-0.6599,-0.6609,-0.6598,-0.6603,-0.6617,-0.6609,-0.6621,-0.6623,-0.6625,-0.6643,-0.6645,-0.6635,-0.664,-0.665,-0.663,-0.6647,-0.6645,-0.6627,-0.6622,-0.6619,-0.6617,-0.6673,0,0,0,0,0,-0.6575,-0.6573,-0.6588,-0.6577,-0.6579,-0.6593,-0.6593,-0.6604,-0.661,-0.6612,-0.6621,-0.6626,-0.6625,-0.6624,-0.6624,-0.661,-0.6613,-0.6602,-0.6598,-0.6595,-0.6593,-0.6585,-0.6581,-0.663,-0.663,-0.663,0,0,-0.6559,-0.6568,-0.6565,-0.6571,-0.6576,-0.6573,-0.6595,-0.6591,-0.6589,-0.6612,-0.6605,-0.6611,-0.6618,-0.6607,-0.6602,-0.6611,-0.658,-0.6593,-0.659,-0.659,-0.6583,-0.6578,-0.6574,-0.6628,-0.6629,-0.6629,0,0,-0.6528,-0.6535,-0.6526,-0.6532,-0.654,-0.655,-0.6547,-0.6559,-0.6564,-0.6558,-0.6575,-0.6572,-0.6571,-0.6575,-0.6577,-0.6548,-0.656,-0.6548,-0.6527,-0.6519,-0.6515,-0.6512,-0.6501,-0.6497,-0.6545,-0.6545,-0.6545,0,-0.6507,-0.6504,-0.652,-0.6515,-0.6517,-0.6538,-0.6529,-0.6533,-0.6541,-0.6541,-0.6551,-0.655,-0.6556,-0.6546,-0.6538,-0.654,-0.6537,-0.6546,-0.6515,-0.6511,-0.6509,-0.6498,-0.6494,-0.6544,-0.6544,-0.6544,-0.6544,0,-0.6477,-0.6475,-0.6467,-0.6474,-0.6475,-0.6468,-0.6483,-0.6482,-0.6492,-0.6501,-0.6494,-0.6502,-0.6504,-0.6503,-0.6513,-0.6494,-0.6499,-0.6512,-0.6528,-0.6502,-0.6492,-0.6489,-0.6541,-0.6542,-0.6542,-0.6543,0,0,-0.6428,-0.6445,-0.6441,-0.6445,-0.6455,-0.6453,-0.6447,-0.645,-0.6448,-0.6453,-0.6448,-0.6446,-0.6458,-0.646,-0.6471,-0.6464,-0.644,-0.6477,-0.6478,-0.6469,-0.6419,-0.6409,-0.6404,-0.6449,-0.6448,-0.6448,-0.6418,0,-0.6399,-0.639,-0.6404,-0.6392,-0.6389,-0.6409,-0.6404,-0.641,-0.6418,-0.6416,-0.6425,-0.6424,-0.644,-0.6441,-0.6435,-0.6444,-0.643,-0.6447,-0.6443,-0.6443,-0.644,-0.6399,-0.6389,-0.636,-0.6415,-0.6414,-0.6414,0,-0.6363,-0.6366,-0.6354,-0.6365,-0.6365,-0.6359,-0.6363,-0.6362,-0.6369,-0.6375,-0.6377,-0.639,-0.6385,-0.6402,-0.6394,-0.6405,-0.6405,-0.6409,-0.6408,-0.6407,-0.6426,-0.6397,-0.6352,-0.6347,-0.6408,-0.6408,-0.6409,0,-0.6327,-0.6329,-0.6321,-0.6323,-0.6337,-0.6333,-0.6338,-0.6346,-0.6346,-0.6349,-0.6349,-0.6352,-0.6352,-0.6354,-0.6367,-0.6378,-0.6357,-0.6375,-0.6361,-0.6361,-0.6355,-0.6355,-0.6308,-0.6356,-0.6356,-0.6357,-0.6357,0,-0.6293,-0.6284,-0.6305,-0.63,-0.6291,-0.6308,-0.6298,-0.6305,-0.6312,-0.6308,-0.6326,-0.6322,-0.634,-0.6339,-0.6349,-0.634,-0.6341,-0.6345,-0.6348,-0.6343,-0.6342,-0.6342,-0.6344,-0.6355,-0.6356,-0.6356,-0.6356,0,-0.625,-0.6265,-0.6257,-0.6271,-0.6274,-0.6266,-0.6278,-0.6273,-0.6283,-0.6278,-0.6278,-0.6293,-0.6292,-0.6305,-0.6307,-0.6314,-0.63,-0.6306,-0.6297,-0.6299,-0.6284,-0.6285,-0.6235,-0.6229,-0.6282,-0.6281,-0.6281,0,-0.6227,-0.6221,-0.6234,-0.6233,-0.6237,-0.6236,-0.6237,-0.6253,-0.6253,-0.6261,-0.6255,-0.6256,-0.6257,-0.6254,-0.6264,-0.6265,-0.6271,-0.6254,-0.6271,-0.6267,-0.627,-0.627,-0.6269,-0.625,-0.6249,-0.6248,-0.6248,0,-0.6183,-0.6191,-0.6191,-0.6194,-0.6195,-0.6198,-0.6202,-0.62,-0.6219,-0.6218,-0.6217,-0.6218,-0.6219,-0.6219,-0.6222,-0.6227,-0.624,-0.6243,-0.6239,-0.6234,-0.6228,-0.623,-0.6286,-0.6243,-0.6244,-0.6244,-0.6244,-0.6245,-0.6149,-0.6144,-0.6153,-0.6153,-0.6158,-0.6161,-0.6158,-0.6167,-0.6167,-0.617,-0.618,-0.6177,-0.6184,-0.619,-0.6193,-0.6191,-0.62,-0.6195,-0.6194,-0.6192,-0.6189,-0.623,-0.6192,-0.6192,-0.6192,-0.6192,-0.6192,0,-0.6106,-0.6112,-0.6112,-0.6118,-0.6118,-0.6131,-0.6136,-0.6135,-0.6133,-0.6138,-0.6139,-0.6138,-0.6138,-0.6149,-0.615,-0.6146,-0.6152,-0.6146,-0.6146,-0.6146,-0.6182,-0.6184,-0.6141,-0.6141,-0.6141,-0.6141,-0.6141,-0.6141,-0.6083,-0.6075,-0.6084,-0.6079,-0.6085,-0.6083,-0.6085,-0.6088,-0.6093,-0.6091,-0.6091,-0.6098,-0.6106,-0.6108,-0.6108,-0.6111,-0.611,-0.6101,-0.6106,-0.6139,-0.6144,-0.6149,-0.6151,-0.6101,-0.6101,-0.6071,-0.6071,-0.6071]}]]